Cahokia, IL

1:46 AM CST on December 09, 2019 (GMT -0600)
Saint Louis Downtown

Weather History for KCPS - November, 2019

Change the Weather History Date:

Monday, November 18, 2019

  Actual Average Record
Temperature  
Mean Temperature 42 °F -  
Max Temperature 52 °F 57 °F 77 °F (1943)
Min Temperature 33 °F 39 °F 12 °F (2014)
Degree Days  
Heating Degree Days 22    
Moisture  
Dew Point 37 °F    
Average Humidity 73    
Maximum Humidity 96    
Minimum Humidity 57    
Precipitation  
Precipitation 0.00 in - - ()
Sea Level Pressure  
Sea Level Pressure 29.82 in    
Wind  
Wind Speed 4 mph (South)    
Max Wind Speed 7 mph    
Max Gust Speed -    
Visibility 10 miles    
Events      
Averages and records for this station are not official NWS values.
T = Trace of Precipitation, MM = Missing Value Source: NWS Daily Summary

Daily Weather History Graph

Daily Weather History Graph

Search for Another Location

Airport or City:

Astronomy

Nov. 18, 2019 Rise Set
Actual Time 6:45 AM CST 4:45 PM CST
Civil Twilight 6:17 AM CST 5:14 PM CST
Nautical Twilight 5:44 AM CST 5:46 PM CST
Astronomical Twilight 5:13 AM CST 6:17 PM CST
Moon 10:30 PM CST (11/18) 12:16 PM CST (11/18)
Length of Visible Light 10h 57m
Length of Day
9h 59m
Waning Gibbous, 63% of the Moon is Illuminated
Nov 18
Waning Gibbous
Nov 19
Last Quarter
Nov 26
New
Dec 4
First Quarter
Dec 11
Full

Hourly Weather History & Observations

Time (CST) Temp. Windchill Dew Point Humidity Pressure Visibility Wind Dir Wind Speed Gust Speed Precip Events Conditions
12:53 AM 43.0 °F 40.3 °F 37.9 °F 82% 29.88 in 10.0 mi WNW 4.6 mph - N/A   Overcast
1:53 AM 43.0 °F 39.5 °F 37.9 °F 82% 29.88 in 10.0 mi West 5.8 mph - N/A   Overcast
2:53 AM 43.0 °F 39.5 °F 37.9 °F 82% 29.88 in 10.0 mi West 5.8 mph - N/A   Overcast
3:53 AM 43.0 °F - 37.0 °F 80% 29.87 in 10.0 mi Calm Calm - N/A   Overcast
4:53 AM 43.0 °F - 37.0 °F 80% 29.87 in 10.0 mi Calm Calm - N/A   Overcast
5:53 AM 37.9 °F - 35.1 °F 89% 29.86 in 10.0 mi Calm Calm - N/A   Partly Cloudy
7:24 AM 33.1 °F - 30.9 °F 92% 29.88 in 1.8 mi Calm Calm - N/A   Clear
7:31 AM 33.1 °F - 32.0 °F 96% 29.88 in 8.0 mi Calm Calm - N/A   Clear
7:53 AM 35.1 °F - 34.0 °F 96% 29.89 in 10.0 mi Calm Calm - N/A   Clear
8:53 AM 45.0 °F 41.2 °F 37.9 °F 76% 29.89 in 10.0 mi North 6.9 mph - N/A   Scattered Clouds
9:30 AM 45.0 °F 43.5 °F 37.0 °F 74% 29.89 in 10.0 mi NNW 3.5 mph - N/A   Mostly Cloudy
9:53 AM 46.9 °F - 37.0 °F 68% 29.88 in 10.0 mi Variable 5.8 mph - N/A   Mostly Cloudy
10:53 AM 48.0 °F - 37.9 °F 68% 29.87 in 10.0 mi Calm Calm - N/A   Scattered Clouds
11:53 AM 48.9 °F - 37.0 °F 64% 29.84 in 10.0 mi West 6.9 mph - N/A   Partly Cloudy
12:53 PM 50.0 °F - 37.0 °F 61% 29.81 in 10.0 mi Calm Calm - N/A   Clear
1:53 PM 51.1 °F - 37.0 °F 59% 29.79 in 10.0 mi South 4.6 mph - N/A   Clear
2:53 PM 52.0 °F - 37.0 °F 57% 29.78 in 10.0 mi SW 4.6 mph - N/A   Partly Cloudy
3:53 PM 52.0 °F - 37.0 °F 57% 29.77 in 10.0 mi SE 5.8 mph - N/A   Overcast
4:53 PM 50.0 °F - 36.0 °F 59% 29.76 in 10.0 mi SE 4.6 mph - N/A   Overcast
5:53 PM 48.9 °F - 37.0 °F 64% 29.76 in 10.0 mi SE 5.8 mph - N/A   Overcast
6:53 PM 48.0 °F - 37.9 °F 68% 29.77 in 10.0 mi SE 5.8 mph - N/A   Overcast
7:53 PM 48.0 °F - 37.9 °F 68% 29.77 in 10.0 mi SSE 3.5 mph - 0.00 in   Overcast
8:53 PM 48.0 °F - 37.9 °F 68% 29.74 in 10.0 mi SSE 6.9 mph - N/A   Overcast
9:53 PM 46.9 °F - 37.9 °F 71% 29.75 in 10.0 mi SSE 5.8 mph - N/A   Overcast
10:53 PM 46.9 °F - 37.9 °F 71% 29.73 in 10.0 mi SSE 5.8 mph - 0.00 in   Overcast
11:53 PM 46.9 °F - 37.9 °F 71% 29.71 in 10.0 mi SSE 5.8 mph - N/A   Overcast